Regional Weather Roundup
Issued by NWS

Home | Current Version | Previous Version | Graphics & Text | Print | Product List | Glossary On
Versions: 1 2 3 4 5 6 7 8 9 10 11 12 13 14 15 16 17 18 19 20 21 22 23 24 25 26 27 28 29 30 31 32 33 34 35 36 37 38 39 40 41 42 43 44 45 46 47 48 49 50
000
ASUS45 KTFX 020519
RWRMT
MONTANA HOURLY WEATHER ROUNDUP
NATIONAL WEATHER SERVICE GREAT FALLS MT
1019 PM MST SUN MAR 1 2015

NOTE: "FAIR" INDICATES FEW OR NO CLOUDS BELOW 12000 FEET WITH NO
SIGNIFICANT WEATHER AND/OR OBSTRUCTIONS TO VISIBILITY.

* THESE STATIONS ARE NOT UNDER NWS QUALITY CONTROL. THEY DO NOT
   REPORT WEATHER SUCH AS PRECIPITATION OR FOG.

MTZ001>007-043-020600-
WEST OF THE DIVIDE
CITY           SKY/WX    TMP DP  RH WIND       PRES   REMARKS
KALISPELL      MOCLDY    19  12  74 W3        29.97F
MISSOULA       PTCLDY    27  12  53 N3        29.98S
BUTTE          PTCLDY    19   9  65 SE5       29.93F WCI  12
MULLAN PASS    CLOUDY    23   1  38 S7        29.86F WCI  15
* ANACONDA     PTCLDY    21   9  60 S7         N/A   WCI  12
* ESSEX        N/A       16   6  64 NW1        N/A
* EUREKA APT   PTCLDY    34   9  35 SE9       29.96F WCI  27
* HAMILTON APT PTCLDY    27  14  58 SE3       29.96S
* LIBBY APT    PTCLDY    28  12  51 SE3       29.97F
* LINCOLN      N/A       20   9  62 N/A        N/A
* LOOKOUT PASS N/A       24  10  55 SE1        N/A
* POLSON       N/A       24   6  46 N/A        N/A
* RONAN APT    PTCLDY    27  18  69 N/A        N/A
* SEELEY LAKE  N/A       20   9  62 N1         N/A
* THOMP F APT  PTCLDY    20  -4  34 N2         N/A
$$

MTZ008-052>055-020600-
SOUTHWEST MONTANA
CITY           SKY/WX    TMP DP  RH WIND       PRES   REMARKS
BOZEMAN        PTCLDY    16  10  77 E5        29.99S WCI   8
DILLON         CLEAR     14   3  61 S6        29.95S WCI   5
* W YELLOWSTON PTCLDY     5  -8  54 N/A        N/A
* THREE FORKS  PTCLDY    19   9  65 N/A        N/A
* BOULDER HILL N/A       18   0  45 S12        N/A   WCI   5
* MONIDA PASS  N/A       14  -1  51 N/A        N/A
* RAYNOLDS PAS N/A        8  -3  60 SW9        N/A   WCI  -5
* WHITEHALL    N/A       18   2  49 N7         N/A   WCI   9
* WISE RIVER   N/A       18   3  52 SE6        N/A   WCI  10
$$

MTZ009>010-012-014-046-048-049-054-020600-
EAST SLOPES AND CENTRAL MONTANA
CITY           SKY/WX    TMP DP  RH WIND       PRES   REMARKS
CUT BANK       MOCLDY    27  10  49 S7        29.85F WCI  19
GREAT FALLS    MOCLDY    28   9  45 S13       29.90F WCI  17
HELENA         MOCLDY    25  12  58 CALM      29.97S
MALMSTROM AFB  MOCLDY    30  12  47 SW17G25   29.91F WCI  18
* CONRAD       CLOUDY    27  18  69 SE6        N/A   WCI  20
* DEARBORN     N/A       32  10  40 SE11G16    N/A   WCI  23
* EAST GLACIER N/A       26   3  37 W27        N/A   WCI  10
* MONARCH      N/A       23  -4  30 S12G18     N/A   WCI  11
* PENDROY      N/A       25  19  78 W4         N/A
* ROGERS PASS  N/A       22   4  46 SE6G11     N/A   WCI  14
* SWEET GRASS  N/A       22  16  78 S15        N/A   WCI   9
* WHITE SULPH  N/A       18   3  52 E8G14      N/A   WCI   8
$$

MTZ011-013-016-021-035-040-045-047-050-051-020600-
NORTH CENTRAL MONTANA
CITY           SKY/WX    TMP DP  RH WIND       PRES   REMARKS
HAVRE          PTCLDY    27   9  46 E5        29.95F WCI  21
LEWISTOWN      PTCLDY    18   7  62 E8        29.94F WCI   8
* N BAR RANCH  CLEAR     23   7  50 SW22G29   29.96F WCI   8
* CHINOOK      PTCLDY    19  12  74 E9        30.00F WCI   8
* FORT BENTON  PTCLDY    25  12  58 E5        29.95F WCI  19
* CHESTER      N/A       24  13  63 S8G15      N/A   WCI  15
* DENTON       N/A       26   8  46 S21G28     N/A   WCI  12
* GEYSER       N/A       16   8  71 SW6        N/A   WCI   7
* JUDITH GAP   N/A       12   5  73 S10        N/A   WCI  -1
* LOMA         N/A       25  13  60 NE9        N/A   WCI  16
$$

MTZ017>020-022>027-061-062-020600-
NORTHEAST MONTANA
CITY           SKY/WX    TMP DP  RH WIND       PRES   REMARKS
GLASGOW        CLEAR     16   9  74 SE13      30.14F WCI   2
GLENDIVE       CLEAR     12   7  80 SE7       30.21F WCI   1
JORDAN         CLEAR     18   9  68 SE9       30.12F WCI   7
SIDNEY         CLEAR     12   7  80 CALM      30.27F
WOLF POINT     CLEAR     12   7  80 CALM      30.20F
* BEAVER HILL  N/A       13   5  70 SE12       N/A   WCI  -1
* CIRCLE       N/A       15   9  77 N/A        N/A
* LINDSAY DVD  N/A        9   4  80 SE3        N/A
* NAVAJO       N/A        9   4  80 S8         N/A   WCI  -3
* POPLAR APT   CLEAR     14   9  80 E7        30.22F WCI   4
* SACO         N/A       18   8  65 SE5        N/A   WCI  11
$$

MTZ028>042-056>058-020600-
SOUTHCENTRAL AND SOUTHEAST MONTANA
CITY           SKY/WX    TMP DP  RH WIND       PRES   REMARKS
BAKER          CLEAR      7   3  83 S10       30.22F WCI  -7
BILLINGS       CLEAR     21   5  50 S8        30.04F WCI  11
LIVINGSTON     CLEAR     16   7  67 SW3       29.99F
MILES CITY     CLEAR     16   9  74 SE12      30.18F WCI   3
* BIG TIMBER A PTCLDY    19   5  54 SW3       30.01F
* FORSYTH APT  CLEAR     21  10  62 SE12      30.14F WCI   9
* LAUREL APT   CLEAR     25   3  38 N/A        N/A
* ROUNDUP APT  CLEAR     25   0  33 N/A        N/A
* ALZADA       N/A        8   3  80 E6         N/A   WCI  -2
* HYSHAM       N/A       21   3  45 SE6G12     N/A   WCI  13
* LAME DEER    N/A       16   5  62 SE9        N/A   WCI   5
* REED POINT   N/A       18   9  68 W1         N/A
* ROSCOE HILL  N/A       17  -4  39 S2         N/A
$$

REGIONAL REPORTS...DAKOTAS
CITY           SKY/WX    TMP DP  RH WIND       PRES   REMARKS
WILLISTON      PTCLDY    10   7  88 SE5       30.26F WCI   1
DICKINSON      CLEAR      7   3  83 S9        30.24F WCI  -6
BEACH          CLEAR      7   3  83 S6        30.23F WCI  -4
CROSBY         CLEAR      5   0  80 S13       30.25F WCI -12
TIOGA          CLEAR     -2  -4  91 CALM      30.28S
WATFORD CITY   CLEAR      5   1  83 CALM      30.25F
BISMARCK       PTCLDY     3  -2  79 CALM      30.37S
GRAND FORKS    CLEAR     10   3  73 W10       30.36R WCI  -4
FARGO          PTCLDY     9   3  76 W9        30.40R WCI  -4
BUFFALO SD     PTCLDY    10   5  80 S6        30.17F
RAPID CITY     PTCLDY    12   7  80 CALM      30.30F
$$

REGIONAL REPORTS...WYOMING/IDAHO/WASHINGTON
CITY           SKY/WX    TMP DP  RH WIND       PRES   REMARKS
GILLETTE       CLEAR     18   7  62 S10       30.13F WCI   6
SHERIDAN       CLEAR     16   5  62 VRB5      30.07F WCI   8
CODY           PTCLDY    16  10  77 S9        30.03S WCI   5
YELLOWSTONE LA PTCLDY    -2  -9  72 NW3       30.00S
SALMON         CLEAR     21  12  68 CALM      29.98R
MULLAN PASS    CLOUDY    23   1  38 S7        29.86S WCI  15
SAND POINT     PTCLDY    28  19  69 CALM      29.97F
SPOKANE        CLOUDY    36  16  44 SE5       29.94F WCI  32
$$

REGIONAL REPORTS...ALBERTA
CITY           SKY/WX    TMP DP  RH WIND       PRES   REMARKS
CALGARY        FAIR      30  10  43 VRB14     29.76S WCI  19
LETHBRIDGE     PTCLDY    23  16  74 SW20      29.82F WCI   8
MEDICINE HAT   CLEAR     27  16  63 S18G32    29.87F WCI  14
EDMONTON       MOCLDY    16  10  77 S6        29.80F WCI   7
WATERTON GATE  N/A       28  10  47 SW17G26    N/A   WCI  16
CARDSTON       N/A       28  14  56 SW7        N/A   WCI  21
MILK RIVER     N/A       21  16  81 SE6        N/A   WCI  13
$$

REGIONAL REPORTS...SASKATCHEWAN
CITY           SKY/WX    TMP DP  RH WIND       PRES   REMARKS
SWIFT CURRENT  CLEAR     16   9  74 S18       29.98F
REGINA         FAIR       0  -2  91 SE10      30.16F WCI -16
VAL MARIE      N/A       18  10  71 S15        N/A   WCI   4
ASSINIBOIA     N/A        5   0  80 SE9        N/A   WCI  -9

$$




USA.gov is the U.S. government's official web portal to all federal, state and local government web resources and services.